Location: Julian California
(33.0790°N, 116.6010°W)
Time: 16:30:23
(UTC-07:00)

Cosmos 1943 Rocket - Pass Details

Date: 12 July 2018
Orbit: 811 x 845 km, 71.0° (Epoch: 21 July)

Event Time Altitude Azimuth Distance (km) Brightness Sun altitude
Rises 20:22:54 0° 189° (S) 3,328 5.1 -5.6°
Reaches altitude 10° 20:25:19 10° 186° (S) 2,404 4.3 -6.0°
Maximum altitude 20:30:44 61° 107° (ESE) 934 2.2 -7.0°
Drops below altitude 10° 20:36:14 10° 28° (NNE) 2,442 4.7 -7.9°
Sets 20:38:43 0° 25° (NNE) 3,384 5.4 -8.4°
